TimeCST,TemperatureF,Dew PointF,Humidity,Sea Level PressureIn,VisibilityMPH,Wind Direction,Wind SpeedMPH,Gust SpeedMPH,PrecipitationIn,Events,Conditions,WindDirDegrees,DateUTC
12:15 AM,35.1,33.1,92,30.10,4.0,SE,3.5,-,N/A,,Clear,140,2012-11-09 06:15:00
12:35 AM,34.9,33.1,93,30.09,4.0,SE,4.6,-,N/A,,Clear,130,2012-11-09 06:35:00
12:55 AM,34.5,32.9,94,30.09,3.0,SE,4.6,-,N/A,,Clear,140,2012-11-09 06:55:00
1:15 AM,34.3,32.9,94,30.10,3.0,SE,3.5,-,N/A,,Clear,140,2012-11-09 07:15:00
1:35 AM,34.2,32.9,95,30.10,3.0,SSE,3.5,-,N/A,,Clear,160,2012-11-09 07:35:00
1:55 AM,34.7,33.3,94,30.11,3.0,SSE,3.5,-,N/A,,Clear,160,2012-11-09 07:55:00
2:15 AM,35.1,33.3,93,30.11,4.0,SSE,3.5,-,N/A,,Clear,160,2012-11-09 08:15:00
2:35 AM,36.1,34.0,92,30.11,4.0,SSE,4.6,-,N/A,,Clear,160,2012-11-09 08:35:00
2:55 AM,35.1,32.9,92,30.11,4.0,SSE,4.6,-,N/A,,Clear,150,2012-11-09 08:55:00
3:15 AM,34.9,33.1,93,30.10,4.0,SSE,5.8,-,N/A,,Clear,150,2012-11-09 09:15:00
3:35 AM,35.6,33.6,92,30.10,4.0,SSE,4.6,-,N/A,,Clear,150,2012-11-09 09:35:00
3:55 AM,35.2,33.4,93,30.10,3.0,SE,5.8,-,N/A,,Clear,140,2012-11-09 09:55:00
4:15 AM,35.2,33.4,93,30.11,3.0,SE,5.8,-,N/A,,Clear,130,2012-11-09 10:15:00
4:35 AM,34.9,33.3,94,30.11,3.0,SE,5.8,-,N/A,,Clear,140,2012-11-09 10:35:00
4:55 AM,35.2,33.6,94,30.10,3.0,SSE,4.6,-,N/A,,Clear,150,2012-11-09 10:55:00
5:15 AM,35.6,33.8,93,30.10,3.0,SE,5.8,-,N/A,,Clear,140,2012-11-09 11:15:00
5:35 AM,35.6,33.8,93,30.10,3.0,SE,5.8,-,N/A,,Clear,140,2012-11-09 11:35:00
5:55 AM,35.8,33.8,92,30.10,4.0,SSE,6.9,-,N/A,,Clear,150,2012-11-09 11:55:00
6:15 AM,35.6,33.8,93,30.10,3.0,SSE,5.8,-,N/A,,Clear,150,2012-11-09 12:15:00
6:35 AM,35.2,33.4,93,30.10,2.0,SE,5.8,-,N/A,,Clear,140,2012-11-09 12:35:00
6:55 AM,35.8,34.0,93,30.11,2.5,SSE,4.6,-,N/A,,Clear,160,2012-11-09 12:55:00
7:15 AM,36.9,34.7,92,30.11,3.0,SE,3.5,-,N/A,,Clear,140,2012-11-09 13:15:00
7:35 AM,38.5,35.6,89,30.11,3.0,SSE,5.8,-,N/A,,Clear,150,2012-11-09 13:35:00
7:55 AM,39.9,36.7,88,30.10,4.0,SE,8.1,-,N/A,,Clear,140,2012-11-09 13:55:00
8:15 AM,41.7,37.8,86,30.10,4.0,SSE,8.1,-,N/A,,Clear,150,2012-11-09 14:15:00
8:35 AM,44.1,39.0,82,30.10,4.0,SSE,10.4,-,N/A,,Haze,160,2012-11-09 14:35:00
8:55 AM,45.9,39.9,80,30.10,5.0,SSE,8.1,-,N/A,,Haze,150,2012-11-09 14:55:00
9:15 AM,49.6,41.0,72,30.09,7.0,South,12.7,-,N/A,,Clear,180,2012-11-09 15:15:00
9:35 AM,51.3,40.6,67,30.08,7.0,South,13.8,-,N/A,,Clear,170,2012-11-09 15:35:00
9:55 AM,52.0,41.0,66,30.07,10.0,South,16.1,20.7,N/A,,Clear,180,2012-11-09 15:55:00
10:15 AM,52.7,41.0,64,30.06,7.0,South,13.8,-,N/A,,Clear,170,2012-11-09 16:15:00
10:35 AM,53.8,41.5,63,30.07,10.0,SSW,17.3,-,N/A,,Clear,200,2012-11-09 16:35:00
10:55 AM,54.5,42.4,64,30.06,7.0,South,13.8,-,N/A,,Clear,180,2012-11-09 16:55:00
11:15 AM,56.3,42.8,61,30.04,7.0,South,15.0,20.7,N/A,,Clear,190,2012-11-09 17:15:00
11:35 AM,56.8,43.2,60,30.03,7.0,South,11.5,-,N/A,,Clear,180,2012-11-09 17:35:00
11:55 AM,57.9,43.3,58,30.02,7.0,South,16.1,20.7,N/A,,Clear,190,2012-11-09 17:55:00
12:15 PM,58.6,43.5,57,30.02,10.0,South,15.0,-,N/A,,Clear,180,2012-11-09 18:15:00
12:35 PM,59.7,43.9,56,30.01,10.0,SSW,15.0,-,N/A,,Clear,200,2012-11-09 18:35:00
12:55 PM,59.4,44.2,57,30.01,10.0,South,13.8,-,N/A,,Mostly Cloudy,180,2012-11-09 18:55:00
1:15 PM,59.4,44.6,58,30.00,10.0,South,12.7,-,N/A,,Overcast,170,2012-11-09 19:15:00
1:35 PM,61.0,45.0,56,29.99,10.0,South,17.3,20.7,N/A,,Scattered Clouds,170,2012-11-09 19:35:00
1:55 PM,60.8,45.1,56,29.99,10.0,South,15.0,-,N/A,,Scattered Clouds,170,2012-11-09 19:55:00
2:15 PM,61.0,45.5,57,29.98,10.0,South,9.2,19.6,N/A,,Clear,170,2012-11-09 20:15:00
2:35 PM,61.3,45.5,56,29.98,10.0,South,9.2,-,N/A,,Clear,170,2012-11-09 20:35:00
2:55 PM,60.8,45.7,57,29.97,10.0,SSE,10.4,17.3,N/A,,Clear,160,2012-11-09 20:55:00
3:15 PM,61.7,45.5,55,29.97,10.0,South,10.4,18.4,N/A,,Clear,170,2012-11-09 21:15:00
3:35 PM,60.8,45.1,56,29.96,10.0,South,16.1,-,N/A,,Clear,170,2012-11-09 21:35:00
3:55 PM,59.4,45.5,60,29.96,10.0,South,12.7,-,N/A,,Clear,170,2012-11-09 21:55:00
4:15 PM,59.2,45.1,60,29.96,10.0,South,12.7,17.3,N/A,,Clear,170,2012-11-09 22:15:00
4:35 PM,58.3,44.6,60,29.96,10.0,SSE,9.2,-,N/A,,Clear,160,2012-11-09 22:35:00
4:55 PM,57.6,44.4,62,29.96,10.0,SSE,9.2,-,N/A,,Clear,160,2012-11-09 22:55:00
5:15 PM,56.1,44.6,65,29.97,10.0,SE,10.4,-,N/A,,Clear,140,2012-11-09 23:15:00
5:35 PM,54.7,44.6,69,29.97,10.0,SE,8.1,-,N/A,,Clear,140,2012-11-09 23:35:00
5:55 PM,53.8,44.2,70,29.98,10.0,SE,8.1,-,N/A,,Clear,140,2012-11-09 23:55:00
6:15 PM,52.7,44.1,72,29.97,10.0,SE,6.9,-,N/A,,Clear,140,2012-11-10 00:15:00
6:35 PM,51.8,43.7,74,29.97,10.0,SE,6.9,-,N/A,,Clear,130,2012-11-10 00:35:00
6:55 PM,51.8,43.7,74,29.97,10.0,SE,6.9,-,N/A,,Clear,140,2012-11-10 00:55:00
7:15 PM,52.3,43.7,72,29.97,10.0,SE,6.9,-,N/A,,Clear,140,2012-11-10 01:15:00
7:35 PM,51.8,44.6,76,29.97,10.0,SE,8.1,-,N/A,,Clear,140,2012-11-10 01:35:00
7:55 PM,51.8,43.3,73,29.97,10.0,SSE,5.8,-,N/A,,Clear,150,2012-11-10 01:55:00
8:15 PM,51.6,43.2,73,29.97,10.0,SSE,6.9,-,N/A,,Clear,150,2012-11-10 02:15:00
8:35 PM,50.9,42.8,74,29.98,10.0,SSE,5.8,-,N/A,,Clear,150,2012-11-10 02:35:00
8:55 PM,51.8,43.0,72,29.98,10.0,SSE,6.9,-,N/A,,Clear,150,2012-11-10 02:55:00
9:15 PM,51.6,42.8,72,29.98,10.0,SE,5.8,-,N/A,,Clear,140,2012-11-10 03:15:00
9:35 PM,50.9,42.4,73,29.98,10.0,SE,4.6,-,N/A,,Clear,130,2012-11-10 03:35:00
9:55 PM,50.9,42.3,72,29.98,10.0,SE,4.6,-,N/A,,Clear,130,2012-11-10 03:55:00
10:15 PM,50.4,42.3,74,29.98,10.0,SSE,4.6,-,N/A,,Clear,150,2012-11-10 04:15:00
10:35 PM,51.8,42.4,70,29.98,10.0,South,4.6,-,N/A,,Clear,170,2012-11-10 04:35:00
10:55 PM,52.9,43.5,71,29.98,10.0,South,8.1,-,N/A,,Clear,170,2012-11-10 04:55:00
11:15 PM,53.6,43.9,70,29.98,10.0,South,8.1,-,N/A,,Clear,180,2012-11-10 05:15:00
11:35 PM,54.5,44.2,68,29.99,10.0,South,8.1,-,N/A,,Clear,190,2012-11-10 05:35:00
11:55 PM,54.7,44.8,69,30.00,10.0,South,11.5,-,N/A,,Clear,190,2012-11-10 05:55:00